Find Starlink 31307

NORAD ID: 59089 Int'l Des: 2024-041 Owner: SPXS Country: US Constellation: starlink operational
LEOCIRCULAR

現在のビュー

3D地球を読み込み中...

About Starlink 31307

Starlink 31307 (NORAD 59089) is a starlink constellation satellite (v2 mini) launched Feb 29, 2024 by SPXS of US. It operates in LEO, CIRCULAR orbit with a mass of 730.00 kg.

次回通過

Passes for default location (London). Set your location on the main map for personalized predictions.

高度履歴

Loading altitude history...

軌道要素

1 59089U 24041R 26263.34550061 .00000483 00000-0 27069-4 0 9998
2 59089 43.0044 291.2220 0001319 266.4905 93.5796 15.27576774144090
Epoch: Sep 20, 2026 • Age: 23 hours

現在のステータス

高度 484.8 km
遠地点 / 近地点 N/A
速度 7.62 km/s
衛星直下点 -11.97°S, 156.12°E
打ち上げ日 Feb 29, 2024
運用期間 2.5 years
タイプ internet

技術仕様

分類 Payload
質量 730.00 kg
乾燥質量 700.00 kg
長さ 0.30 m
スパン 29.00 m
形状 ? Box + pan
製造者 SPXS
バスタイプ Starlink V2M
フェーズステータス In Orbit
所有者/国 SPXS/US

Most Searched